Regional Weather Roundup
Issued by NWS Memphis, TN

Home | Current Version | Previous Version | Text Only | Print | Product List | Glossary On
Versions: 1 2 3 4 5 6 7 8 9 10 11 12 13 14 15 16 17 18 19 20 21 22 23 24 25 26 27 28 29 30 31 32 33 34 35 36 37 38 39 40 41 42 43 44 45 46 47 48 49 50
000
ASUS44 KMEG 010410
RWRMEG
MEMPHIS CWA HOURLY WEATHER ROUNDUP
NATIONAL WEATHER SERVICE MEMPHIS TN
1100 PM CDT MON AUG 31 2015

...WEST TENNESSEE...

CITY           SKY/WX    TMP DP  RH WIND       PRES   REMARKS
MEMPHIS INTL   PTCLDY    80  68  66 SE5       30.07S
NWS MEMPHIS      N/A     77 N/A N/A MISG        N/A
JACKSON        PTCLDY    69  67  93 CALM      30.09R FOG
LEXINGTON      CLEAR     70  68  94 CALM      30.09S
DYERSBURG      CLEAR     72  70  94 CALM      30.08S
UNION CITY     CLEAR    N/A N/A N/A CALM      30.07S
PARIS          CLEAR     66  64  94 CALM      30.10S


...EASTERN ARKANSAS...

CITY           SKY/WX    TMP DP  RH WIND       PRES   REMARKS
JONESBORO      CLEAR     72  70  93 E3        30.05S
WEST MEMPHIS   CLEAR     75  69  81 SE3       30.05S
BATESVILLE     CLEAR     73  70  88 CALM      30.05S
NEWPORT        CLEAR     75  72  91 E6        30.05F
WALNUT RIDGE   CLEAR     75  68  78 SE5       30.05S
BLYTHEVILLE    CLEAR     74  70  87 SE3       30.07S
SEARCY         CLEAR     78  72  81 E3        30.05S
STUTTGART      PTCLDY    81  66  61 E6        30.04S
PINE BLUFF     CLEAR     74  69  85 E5        30.03S
MONTICELLO     PTCLDY    76  70  82 CALM      30.02S


...NORTH MISSISSIPPI...

CITY           SKY/WX    TMP DP  RH WIND       PRES   REMARKS
TUPELO         CLEAR     74  69  85 CALM      30.08S
OXFORD         CLEAR     73  66  78 SE6       30.09S
OLIVE BRANCH   CLEAR     73  73 100 E5        30.08S
TUNICA         PTCLDY    75  70  83 E5        30.06S
CLARKSDALE       N/A     75  73  94 E6        30.06R
CORINTH        CLEAR     70  68  94 CALM      30.08S FOG
GREENWOOD      CLEAR     79  67  66 E10       30.04R
COLUMBUS       CLEAR     71  69  94 E2        30.06F
STARKVILLE     FAIR      70  68  94 CALM      30.07S
GOLDEN TRIANGL CLEAR     73  66  78 E3        30.07S


...SOUTHEAST MISSOURI...

CITY           SKY/WX    TMP DP  RH WIND       PRES   REMARKS
WEST PLAINS    CLEAR     73  68  84 CALM      30.10F
POPLAR BLUFF   CLEAR     73  69  87 CALM      30.05S
CAPE GIRARDEAU CLEAR     72  68  87 E3        30.06F


...NORTHWEST ALABAMA...

CITY           SKY/WX    TMP DP  RH WIND       PRES   REMARKS
MUSCLE SHOALS  CLEAR     70  67  90 CALM      30.11S


...MIDDLE TENNESSEE...

CITY           SKY/WX    TMP DP  RH WIND       PRES   REMARKS
NASHVILLE      CLEAR     73  65  75 S3        30.11S
CLARKSVILLE    PTCLDY    70  66  87 CALM      30.10R
COLUMBIA       CLEAR     70  70 100 CALM      30.10S


...WESTERN KENTUCKY...

CITY           SKY/WX    TMP DP  RH WIND       PRES   REMARKS
PADUCAH        CLEAR     71  67  87 CALM      30.08R
FORT CAMPBELL  PTCLDY    72  66  82 NE2       30.10R


...CENTRAL ARKANSAS...

CITY           SKY/WX    TMP DP  RH WIND       PRES   REMARKS
LITTLE ROCK    CLEAR     80  69  69 CALM      30.03S


SKY/WX REPORTED AS FAIR MEANS FEW OR NO CLOUDS BELOW
12 THOUSAND FEET.



USA.gov is the U.S. government's official web portal to all federal, state and local government web resources and services.